Time,TemperatureF,DewpointF,PressureIn,WindDirection,WindDirectionDegrees,WindSpeedMPH,WindSpeedGustMPH,Humidity,HourlyPrecipIn,Conditions,Clouds,dailyrainin,SoftwareType,DateUTC
2013-12-08 00:02:00,19.6,7.2,30.55,ESE,119,11.0,19.0,58,0.00,,,0.00,meteohub,2013-12-08 06:02:00,
2013-12-08 00:07:00,19.4,7.0,30.55,East,96,17.0,18.0,58,0.00,,,0.00,meteohub,2013-12-08 06:07:00,
2013-12-08 00:12:00,19.6,7.2,30.55,ESE,103,11.0,17.0,58,0.00,,,0.00,meteohub,2013-12-08 06:12:00,
2013-12-08 00:17:00,19.6,7.2,30.54,SE,132,6.0,17.0,58,0.00,,,0.00,meteohub,2013-12-08 06:17:00,
2013-12-08 00:22:00,19.6,7.2,30.53,East,99,13.0,17.0,58,0.00,,,0.00,meteohub,2013-12-08 06:22:00,
2013-12-08 00:27:00,19.6,7.5,30.53,SE,124,8.0,18.0,59,0.00,,,0.00,meteohub,2013-12-08 06:27:00,
2013-12-08 00:33:00,19.6,7.5,30.53,ESE,103,7.0,18.0,59,0.00,,,0.00,meteohub,2013-12-08 06:33:00,
2013-12-08 00:38:00,19.6,7.5,30.53,ESE,119,7.0,18.0,59,0.00,,,0.00,meteohub,2013-12-08 06:38:00,
2013-12-08 00:43:00,19.6,7.5,30.52,ESE,106,11.0,16.0,59,0.00,,,0.00,meteohub,2013-12-08 06:43:00,
2013-12-08 00:48:00,19.6,7.5,30.52,East,99,14.0,16.0,59,0.00,,,0.00,meteohub,2013-12-08 06:48:00,
2013-12-08 00:53:00,19.6,7.5,30.51,ESE,103,13.0,16.0,59,0.00,,,0.00,meteohub,2013-12-08 06:53:00,
2013-12-08 00:58:00,19.6,7.5,30.51,SE,124,12.0,17.0,59,0.00,,,0.00,meteohub,2013-12-08 06:58:00,
2013-12-08 01:03:00,19.6,7.5,30.51,ESE,111,10.0,17.0,59,0.00,,,0.00,meteohub,2013-12-08 07:03:00,
2013-12-08 01:08:00,19.6,7.5,30.50,East,101,12.0,17.0,59,0.00,,,0.00,meteohub,2013-12-08 07:08:00,
2013-12-08 01:13:00,19.8,8.1,30.50,ESE,117,7.0,17.0,60,0.00,,,0.00,meteohub,2013-12-08 07:13:00,
2013-12-08 01:18:00,19.6,7.5,30.49,ESE,106,11.0,16.0,59,0.00,,,0.00,meteohub,2013-12-08 07:18:00,
2013-12-08 01:23:00,19.6,7.9,30.49,SE,133,13.0,16.0,60,0.00,,,0.00,meteohub,2013-12-08 07:23:00,
2013-12-08 01:28:00,19.6,7.9,30.48,ESE,117,12.0,15.0,60,0.00,,,0.00,meteohub,2013-12-08 07:28:00,
2013-12-08 01:33:00,19.6,7.9,30.48,ESE,122,5.0,15.0,60,0.00,,,0.00,meteohub,2013-12-08 07:33:00,
2013-12-08 01:38:00,19.8,8.1,30.47,ESE,103,9.0,15.0,60,0.00,,,0.00,meteohub,2013-12-08 07:38:00,
2013-12-08 01:43:00,19.8,8.1,30.47,East,97,13.0,15.0,60,0.00,,,0.00,meteohub,2013-12-08 07:43:00,
2013-12-08 01:48:00,19.6,8.2,30.47,ESE,115,16.0,16.0,61,0.00,,,0.00,meteohub,2013-12-08 07:48:00,
2013-12-08 01:53:00,19.6,8.2,30.46,East,85,10.0,16.0,61,0.00,,,0.00,meteohub,2013-12-08 07:53:00,
2013-12-08 01:58:00,19.8,8.4,30.46,East,85,9.0,16.0,61,0.00,,,0.00,meteohub,2013-12-08 07:58:00,
2013-12-08 02:03:00,19.6,8.2,30.47,ESE,103,10.0,16.0,61,0.00,,,0.00,meteohub,2013-12-08 08:03:00,
2013-12-08 02:08:00,19.8,8.4,30.46,ESE,108,9.0,17.0,61,0.00,,,0.00,meteohub,2013-12-08 08:08:00,
2013-12-08 02:13:00,19.8,8.4,30.46,ESE,115,12.0,17.0,61,0.00,,,0.00,meteohub,2013-12-08 08:13:00,
2013-12-08 02:18:00,19.8,8.8,30.45,ESE,111,10.0,16.0,62,0.00,,,0.00,meteohub,2013-12-08 08:18:00,
2013-12-08 02:23:00,19.8,8.8,30.45,ESE,108,12.0,16.0,62,0.00,,,0.00,meteohub,2013-12-08 08:23:00,
2013-12-08 02:28:00,19.8,8.8,30.45,ESE,111,14.0,16.0,62,0.00,,,0.00,meteohub,2013-12-08 08:28:00,
2013-12-08 02:33:00,19.8,8.8,30.45,ESE,108,7.0,14.0,62,0.00,,,0.00,meteohub,2013-12-08 08:33:00,
2013-12-08 02:38:00,19.8,9.1,30.44,ESE,103,15.0,15.0,63,0.00,,,0.00,meteohub,2013-12-08 08:38:00,
2013-12-08 02:43:00,19.8,9.1,30.44,East,90,6.0,14.0,63,0.00,,,0.00,meteohub,2013-12-08 08:43:00,
2013-12-08 02:48:00,19.8,9.1,30.44,ESE,117,7.0,16.0,63,0.00,,,0.00,meteohub,2013-12-08 08:48:00,
2013-12-08 02:53:00,19.8,9.1,30.43,ESE,103,10.0,16.0,63,0.00,,,0.00,meteohub,2013-12-08 08:53:00,
2013-12-08 02:58:00,19.8,9.5,30.43,East,79,15.0,16.0,64,0.00,,,0.00,meteohub,2013-12-08 08:58:00,
2013-12-08 03:03:00,19.6,9.7,30.43,ESE,106,7.0,16.0,65,0.00,,,0.00,meteohub,2013-12-08 09:03:00,
2013-12-08 03:08:00,19.6,10.0,30.43,ESE,108,11.0,16.0,66,0.00,,,0.00,meteohub,2013-12-08 09:08:00,
2013-12-08 03:13:00,19.6,10.4,30.43,East,93,5.0,16.0,67,0.00,,,0.00,meteohub,2013-12-08 09:13:00,
2013-12-08 03:18:00,19.6,10.4,30.43,SE,127,4.0,16.0,67,0.00,,,0.00,meteohub,2013-12-08 09:18:00,
2013-12-08 03:23:00,19.6,10.8,30.43,ESE,122,11.0,15.0,68,0.00,,,0.00,meteohub,2013-12-08 09:23:00,
2013-12-08 03:28:00,19.4,10.9,30.43,SE,124,6.0,15.0,69,0.00,,,0.00,meteohub,2013-12-08 09:28:00,
2013-12-08 03:33:00,19.4,11.3,30.42,SE,134,4.0,15.0,70,0.00,,,0.00,meteohub,2013-12-08 09:33:00,
2013-12-08 03:38:00,19.4,11.5,30.42,ESE,106,9.0,14.0,71,0.00,,,0.00,meteohub,2013-12-08 09:38:00,
2013-12-08 03:44:00,19.0,11.8,30.41,ESE,120,11.0,14.0,73,0.00,,,0.00,meteohub,2013-12-08 09:44:00,
2013-12-08 03:49:00,19.0,12.2,30.41,East,82,6.0,15.0,74,0.00,,,0.00,meteohub,2013-12-08 09:49:00,
2013-12-08 03:54:00,18.9,12.6,30.41,SE,143,6.0,15.0,76,0.00,,,0.00,meteohub,2013-12-08 09:54:00,
2013-12-08 03:59:00,18.7,12.9,30.40,ESE,112,12.0,15.0,78,0.00,,,0.00,meteohub,2013-12-08 09:59:00,
2013-12-08 04:04:00,18.5,13.1,30.41,ESE,117,9.0,15.0,79,0.00,,,0.00,meteohub,2013-12-08 10:04:00,
2013-12-08 04:09:00,18.5,13.6,30.41,SE,133,4.0,15.0,81,0.00,,,0.00,meteohub,2013-12-08 10:09:00,
2013-12-08 04:14:00,18.3,13.5,30.40,East,101,7.0,15.0,81,0.00,,,0.00,meteohub,2013-12-08 10:14:00,
2013-12-08 04:19:00,18.3,13.8,30.39,ESE,106,14.0,14.0,82,0.00,,,0.00,meteohub,2013-12-08 10:19:00,
2013-12-08 04:24:00,18.1,13.8,30.38,ESE,122,11.0,13.0,83,0.00,,,0.00,meteohub,2013-12-08 10:24:00,
2013-12-08 04:29:00,18.1,14.2,30.38,SE,129,12.0,15.0,84,0.00,,,0.00,meteohub,2013-12-08 10:29:00,
2013-12-08 04:34:00,18.0,14.2,30.38,SE,124,9.0,16.0,85,0.00,,,0.00,meteohub,2013-12-08 10:34:00,
2013-12-08 04:39:00,18.0,14.2,30.38,SE,133,9.0,17.0,85,0.00,,,0.00,meteohub,2013-12-08 10:39:00,
2013-12-08 04:44:00,18.0,14.5,30.38,ESE,121,9.0,17.0,86,0.00,,,0.00,meteohub,2013-12-08 10:44:00,
2013-12-08 04:49:00,18.0,14.5,30.38,ESE,107,9.0,13.0,86,0.00,,,0.00,meteohub,2013-12-08 10:49:00,
2013-12-08 04:54:00,18.0,14.7,30.38,ESE,114,12.0,13.0,87,0.00,,,0.00,meteohub,2013-12-08 10:54:00,
2013-12-08 04:59:00,18.0,14.7,30.38,ESE,113,9.0,14.0,87,0.00,,,0.00,meteohub,2013-12-08 10:59:00,
2013-12-08 05:04:00,18.0,14.7,30.37,ESE,102,9.0,14.0,87,0.00,,,0.00,meteohub,2013-12-08 11:04:00,
2013-12-08 05:09:00,17.8,14.5,30.37,ESE,120,11.0,14.0,87,0.00,,,0.00,meteohub,2013-12-08 11:09:00,
2013-12-08 05:14:00,18.0,15.1,30.37,SE,124,5.0,13.0,88,0.00,,,0.00,meteohub,2013-12-08 11:14:00,
2013-12-08 05:19:00,17.8,14.9,30.37,SE,129,6.0,13.0,88,0.00,,,0.00,meteohub,2013-12-08 11:19:00,
2013-12-08 05:24:00,17.8,14.9,30.37,ESE,111,9.0,13.0,88,0.00,,,0.00,meteohub,2013-12-08 11:24:00,
2013-12-08 05:29:00,18.0,15.3,30.37,ESE,121,9.0,12.0,89,0.00,,,0.00,meteohub,2013-12-08 11:29:00,
2013-12-08 05:34:00,18.0,15.3,30.37,East,98,13.0,13.0,89,0.00,,,0.00,meteohub,2013-12-08 11:34:00,
2013-12-08 05:39:00,17.8,15.1,30.37,ESE,108,7.0,11.0,89,0.00,,,0.00,meteohub,2013-12-08 11:39:00,
2013-12-08 05:44:00,17.8,15.1,30.37,SE,127,3.0,13.0,89,0.00,,,0.00,meteohub,2013-12-08 11:44:00,
2013-12-08 05:49:00,17.8,15.1,30.37,ESE,115,8.0,13.0,89,0.00,,,0.00,meteohub,2013-12-08 11:49:00,
2013-12-08 05:54:00,17.8,15.3,30.37,SE,129,8.0,13.0,90,0.00,,,0.00,meteohub,2013-12-08 11:54:00,
2013-12-08 05:59:00,17.8,15.3,30.36,ESE,117,4.0,13.0,90,0.00,,,0.00,meteohub,2013-12-08 11:59:00,
2013-12-08 06:04:00,18.0,15.4,30.35,SE,133,5.0,12.0,90,0.00,,,0.00,meteohub,2013-12-08 12:04:00,
2013-12-08 06:09:00,17.8,15.3,30.35,East,92,8.0,12.0,90,0.00,,,0.00,meteohub,2013-12-08 12:09:00,
2013-12-08 06:14:00,17.8,15.3,30.36,SE,127,9.0,11.0,90,0.00,,,0.00,meteohub,2013-12-08 12:14:00,
2013-12-08 06:19:00,17.8,15.3,30.35,East,101,6.0,11.0,90,0.00,,,0.00,meteohub,2013-12-08 12:19:00,
2013-12-08 06:24:00,17.8,15.3,30.35,ESE,108,9.0,11.0,90,0.00,,,0.00,meteohub,2013-12-08 12:24:00,
2013-12-08 06:29:00,17.8,15.6,30.35,ESE,121,8.0,13.0,91,0.00,,,0.00,meteohub,2013-12-08 12:29:00,
2013-12-08 06:34:00,17.8,15.6,30.35,SE,124,9.0,13.0,91,0.00,,,0.00,meteohub,2013-12-08 12:34:00,
2013-12-08 06:40:00,17.8,15.6,30.35,SE,136,2.0,13.0,91,0.00,,,0.00,meteohub,2013-12-08 12:40:00,
2013-12-08 06:45:00,17.8,15.6,30.35,East,96,7.0,13.0,91,0.00,,,0.00,meteohub,2013-12-08 12:45:00,
2013-12-08 06:50:00,17.8,15.6,30.35,East,99,11.0,13.0,91,0.00,,,0.00,meteohub,2013-12-08 12:50:00,
2013-12-08 06:55:00,17.8,15.6,30.35,ESE,119,6.0,13.0,91,0.00,,,0.00,meteohub,2013-12-08 12:55:00,
2013-12-08 07:00:00,17.8,15.6,30.35,SE,129,6.0,13.0,91,0.00,,,0.00,meteohub,2013-12-08 13:00:00,
2013-12-08 07:05:00,17.8,15.6,30.34,East,96,6.0,13.0,91,0.00,,,0.00,meteohub,2013-12-08 13:05:00,
2013-12-08 07:10:00,17.8,15.6,30.34,ESE,102,10.0,12.0,91,0.00,,,0.00,meteohub,2013-12-08 13:10:00,
2013-12-08 07:15:00,18.0,15.8,30.34,ESE,119,10.0,12.0,91,0.00,,,0.00,meteohub,2013-12-08 13:15:00,
2013-12-08 07:20:00,18.0,15.8,30.34,ESE,122,7.0,13.0,91,0.00,,,0.00,meteohub,2013-12-08 13:20:00,
2013-12-08 07:25:00,18.0,15.8,30.33,SE,140,7.0,13.0,91,0.00,,,0.00,meteohub,2013-12-08 13:25:00,
2013-12-08 07:30:00,18.0,15.8,30.34,ESE,117,9.0,13.0,91,0.00,,,0.00,meteohub,2013-12-08 13:30:00,
2013-12-08 07:35:00,18.0,15.8,30.34,SE,136,5.0,12.0,91,0.00,,,0.00,meteohub,2013-12-08 13:35:00,
2013-12-08 07:40:00,18.1,15.6,30.34,ESE,108,13.0,19.0,90,0.00,,,0.00,meteohub,2013-12-08 13:40:00,
2013-12-08 07:45:00,18.1,15.6,30.34,South,172,4.0,19.0,90,0.00,,,0.00,meteohub,2013-12-08 13:45:00,
2013-12-08 07:50:00,18.1,15.6,30.34,SE,133,7.0,14.0,90,0.00,,,0.00,meteohub,2013-12-08 13:50:00,
2013-12-08 07:55:00,18.1,15.6,30.33,South,176,6.0,13.0,90,0.00,,,0.00,meteohub,2013-12-08 13:55:00,
2013-12-08 08:00:00,18.1,15.6,30.33,SE,127,6.0,14.0,90,0.00,,,0.00,meteohub,2013-12-08 14:00:00,
2013-12-08 08:05:00,18.1,15.6,30.33,ESE,108,10.0,14.0,90,0.00,,,0.00,meteohub,2013-12-08 14:05:00,
2013-12-08 08:10:00,18.1,16.0,30.33,SE,124,7.0,14.0,91,0.00,,,0.00,meteohub,2013-12-08 14:10:00,
2013-12-08 08:15:00,18.3,16.2,30.33,SSW,192,4.0,12.0,91,0.00,,,0.00,meteohub,2013-12-08 14:15:00,
2013-12-08 08:20:00,18.3,16.2,30.33,ESE,108,10.0,11.0,91,0.00,,,0.00,meteohub,2013-12-08 14:20:00,
2013-12-08 08:25:00,18.3,16.2,30.33,SE,137,3.0,14.0,91,0.00,,,0.00,meteohub,2013-12-08 14:25:00,
2013-12-08 08:30:00,18.3,16.2,30.33,ESE,105,8.0,14.0,91,0.00,,,0.00,meteohub,2013-12-08 14:30:00,
2013-12-08 08:35:00,18.3,16.2,30.33,SE,126,8.0,14.0,91,0.00,,,0.00,meteohub,2013-12-08 14:35:00,
2013-12-08 08:40:00,18.3,16.2,30.33,ESE,111,10.0,12.0,91,0.00,,,0.00,meteohub,2013-12-08 14:40:00,
2013-12-08 08:45:00,18.3,16.2,30.33,ESE,106,4.0,11.0,91,0.00,,,0.00,meteohub,2013-12-08 14:45:00,
2013-12-08 08:50:00,18.5,16.5,30.33,SSE,158,6.0,11.0,92,0.00,,,0.00,meteohub,2013-12-08 14:50:00,
2013-12-08 08:55:00,18.7,16.7,30.33,SSE,155,4.0,11.0,92,0.00,,,0.00,meteohub,2013-12-08 14:55:00,
2013-12-08 09:01:00,18.7,16.7,30.32,SE,136,4.0,11.0,92,0.00,,,0.00,meteohub,2013-12-08 15:01:00,
2013-12-08 09:06:00,18.7,16.5,30.32,ESE,122,9.0,11.0,91,0.00,,,0.00,meteohub,2013-12-08 15:06:00,
2013-12-08 09:11:00,18.7,16.7,30.32,SSE,162,4.0,11.0,92,0.00,,,0.00,meteohub,2013-12-08 15:11:00,
2013-12-08 09:16:00,18.9,16.9,30.32,SSE,153,6.0,11.0,92,0.00,,,0.00,meteohub,2013-12-08 15:16:00,
2013-12-08 09:21:00,18.9,16.9,30.32,SE,146,7.0,13.0,92,0.00,,,0.00,meteohub,2013-12-08 15:21:00,
2013-12-08 09:26:00,18.9,16.9,30.32,SSE,156,10.0,13.0,92,0.00,,,0.00,meteohub,2013-12-08 15:26:00,
2013-12-08 09:31:00,18.9,16.9,30.31,SSE,162,8.0,13.0,92,0.00,,,0.00,meteohub,2013-12-08 15:31:00,
2013-12-08 09:36:00,19.0,17.1,30.31,ESE,111,6.0,13.0,92,0.00,,,0.00,meteohub,2013-12-08 15:36:00,
2013-12-08 09:41:00,19.0,17.1,30.31,SSE,147,9.0,13.0,92,0.00,,,0.00,meteohub,2013-12-08 15:41:00,
2013-12-08 09:46:00,19.0,17.1,30.31,SSE,156,5.0,12.0,92,0.00,,,0.00,meteohub,2013-12-08 15:46:00,
2013-12-08 09:51:00,19.2,17.2,30.31,South,174,2.0,13.0,92,0.00,,,0.00,meteohub,2013-12-08 15:51:00,
2013-12-08 09:56:00,19.2,17.2,30.31,SE,139,5.0,13.0,92,0.00,,,0.00,meteohub,2013-12-08 15:56:00,
2013-12-08 10:01:00,19.4,17.4,30.31,SSE,167,5.0,13.0,92,0.00,,,0.00,meteohub,2013-12-08 16:01:00,
2013-12-08 10:06:00,19.6,17.4,30.32,SSW,193,4.0,10.0,91,0.00,,,0.00,meteohub,2013-12-08 16:06:00,
2013-12-08 10:11:00,19.6,17.4,30.32,SSE,162,8.0,10.0,91,0.00,,,0.00,meteohub,2013-12-08 16:11:00,
2013-12-08 10:16:00,19.6,17.4,30.31,South,181,3.0,10.0,91,0.00,,,0.00,meteohub,2013-12-08 16:16:00,
2013-12-08 10:21:00,19.6,17.4,30.31,SSE,165,6.0,12.0,91,0.00,,,0.00,meteohub,2013-12-08 16:21:00,
2013-12-08 10:26:00,19.6,17.4,30.30,SE,140,8.0,12.0,91,0.00,,,0.00,meteohub,2013-12-08 16:26:00,
2013-12-08 10:31:00,19.8,17.8,30.29,SSE,157,11.0,12.0,92,0.00,,,0.00,meteohub,2013-12-08 16:31:00,
2013-12-08 10:36:00,19.9,17.8,30.29,ESE,121,7.0,12.0,91,0.00,,,0.00,meteohub,2013-12-08 16:36:00,
2013-12-08 10:41:00,20.1,18.0,30.29,South,188,3.0,12.0,91,0.00,,,0.00,meteohub,2013-12-08 16:41:00,
2013-12-08 10:46:00,20.1,18.0,30.29,South,188,4.0,12.0,91,0.00,,,0.00,meteohub,2013-12-08 16:46:00,
2013-12-08 10:51:00,20.1,18.0,30.29,SSW,199,9.0,12.0,91,0.00,,,0.00,meteohub,2013-12-08 16:51:00,
2013-12-08 10:56:00,20.1,18.0,30.29,SSE,152,8.0,12.0,91,0.00,,,0.00,meteohub,2013-12-08 16:56:00,
2013-12-08 11:01:00,20.3,18.1,30.28,SSW,207,3.0,12.0,91,0.00,,,0.00,meteohub,2013-12-08 17:01:00,
2013-12-08 11:06:00,20.5,18.3,30.28,South,170,8.0,12.0,91,0.00,,,0.00,meteohub,2013-12-08 17:06:00,
2013-12-08 11:11:00,20.5,18.3,30.28,South,172,8.0,10.0,91,0.00,,,0.00,meteohub,2013-12-08 17:11:00,
2013-12-08 11:16:00,20.5,18.3,30.28,SSW,206,2.0,12.0,91,0.00,,,0.00,meteohub,2013-12-08 17:16:00,
2013-12-08 11:21:00,20.5,18.3,30.28,SW,224,10.0,12.0,91,0.00,,,0.00,meteohub,2013-12-08 17:21:00,
2013-12-08 11:26:00,20.7,18.5,30.27,ESE,120,7.0,11.0,91,0.00,,,0.00,meteohub,2013-12-08 17:26:00,
2013-12-08 11:31:00,20.7,18.1,30.27,SSW,203,3.0,12.0,90,0.00,,,0.00,meteohub,2013-12-08 17:31:00,
2013-12-08 11:36:00,20.5,18.0,30.27,SSE,156,5.0,12.0,90,0.00,,,0.00,meteohub,2013-12-08 17:36:00,
2013-12-08 11:41:00,20.7,18.5,30.27,SW,231,9.0,12.0,91,0.00,,,0.00,meteohub,2013-12-08 17:41:00,
2013-12-08 11:46:00,20.7,18.5,30.27,SE,124,8.0,11.0,91,0.00,,,0.00,meteohub,2013-12-08 17:46:00,
2013-12-08 11:51:00,20.8,18.7,30.27,SSW,211,4.0,10.0,91,0.00,,,0.00,meteohub,2013-12-08 17:51:00,
2013-12-08 11:56:00,20.8,18.3,30.27,SW,235,6.0,10.0,90,0.00,,,0.00,meteohub,2013-12-08 17:56:00,
2013-12-08 12:01:00,20.8,18.3,30.26,SSW,195,4.0,12.0,90,0.00,,,0.00,meteohub,2013-12-08 18:01:00,
2013-12-08 12:06:00,20.8,18.3,30.25,SSW,208,7.0,12.0,90,0.00,,,0.00,meteohub,2013-12-08 18:06:00,
2013-12-08 12:11:00,20.8,18.3,30.25,SW,217,3.0,12.0,90,0.00,,,0.00,meteohub,2013-12-08 18:11:00,
2013-12-08 12:16:00,20.8,18.3,30.25,SW,215,9.0,11.0,90,0.00,,,0.00,meteohub,2013-12-08 18:16:00,
2013-12-08 12:21:00,21.0,18.3,30.25,South,186,6.0,12.0,89,0.00,,,0.00,meteohub,2013-12-08 18:21:00,
2013-12-08 12:26:00,21.0,18.3,30.25,SW,231,4.0,12.0,89,0.00,,,0.00,meteohub,2013-12-08 18:26:00,
2013-12-08 12:31:00,21.0,18.3,30.25,SSW,208,6.0,12.0,89,0.00,,,0.00,meteohub,2013-12-08 18:31:00,
2013-12-08 12:36:00,21.2,18.5,30.23,SW,228,10.0,10.0,89,0.00,,,0.00,meteohub,2013-12-08 18:36:00,
2013-12-08 12:41:00,21.4,18.7,30.23,SE,132,4.0,12.0,89,0.00,,,0.00,meteohub,2013-12-08 18:41:00,
2013-12-08 12:46:00,21.4,18.3,30.24,WSW,243,9.0,12.0,88,0.00,,,0.00,meteohub,2013-12-08 18:46:00,
2013-12-08 12:51:00,21.4,18.7,30.23,SW,225,7.0,12.0,89,0.00,,,0.00,meteohub,2013-12-08 18:51:00,
2013-12-08 12:56:00,21.6,18.9,30.23,SW,231,3.0,12.0,89,0.00,,,0.00,meteohub,2013-12-08 18:56:00,
2013-12-08 13:01:00,21.6,18.5,30.23,SSW,210,5.0,12.0,88,0.00,,,0.00,meteohub,2013-12-08 19:01:00,
2013-12-08 13:06:00,21.7,18.7,30.23,SW,231,7.0,11.0,88,0.00,,,0.00,meteohub,2013-12-08 19:06:00,
2013-12-08 13:11:00,21.6,18.5,30.23,SW,224,6.0,12.0,88,0.00,,,0.00,meteohub,2013-12-08 19:11:00,
2013-12-08 13:16:00,21.6,18.9,30.22,SW,225,7.0,12.0,89,0.00,,,0.00,meteohub,2013-12-08 19:16:00,
2013-12-08 13:21:00,21.6,18.9,30.22,SW,217,6.0,12.0,89,0.00,,,0.00,meteohub,2013-12-08 19:21:00,
2013-12-08 13:26:00,21.7,19.0,30.21,SW,224,5.0,12.0,89,0.00,,,0.00,meteohub,2013-12-08 19:26:00,
2013-12-08 13:31:00,21.7,19.0,30.21,SSW,208,6.0,10.0,89,0.00,,,0.00,meteohub,2013-12-08 19:31:00,
2013-12-08 13:37:00,21.7,19.0,30.20,SW,214,6.0,10.0,89,0.00,,,0.00,meteohub,2013-12-08 19:37:00,
2013-12-08 13:42:00,21.7,19.0,30.20,SSW,200,3.0,10.0,89,0.00,,,0.00,meteohub,2013-12-08 19:42:00,
2013-12-08 13:47:00,21.7,19.0,30.20,SW,214,5.0,10.0,89,0.00,,,0.00,meteohub,2013-12-08 19:47:00,
2013-12-08 13:52:00,21.7,19.0,30.20,SW,219,3.0,11.0,89,0.00,,,0.00,meteohub,2013-12-08 19:52:00,
2013-12-08 13:57:00,21.7,19.0,30.20,SW,228,8.0,11.0,89,0.00,,,0.00,meteohub,2013-12-08 19:57:00,
2013-12-08 14:02:00,21.9,19.2,30.20,SW,217,6.0,11.0,89,0.00,,,0.00,meteohub,2013-12-08 20:02:00,
2013-12-08 14:07:00,21.9,19.2,30.21,SW,219,9.0,11.0,89,0.00,,,0.00,meteohub,2013-12-08 20:07:00,
2013-12-08 14:12:00,21.9,19.2,30.21,WSW,242,10.0,11.0,89,0.00,,,0.00,meteohub,2013-12-08 20:12:00,
2013-12-08 14:17:00,21.9,18.9,30.21,SW,222,5.0,11.0,88,0.00,,,0.00,meteohub,2013-12-08 20:17:00,
2013-12-08 14:22:00,21.9,18.9,30.21,SW,236,7.0,11.0,88,0.00,,,0.00,meteohub,2013-12-08 20:22:00,
2013-12-08 14:26:00,21.9,18.9,30.21,SW,225,9.0,12.0,88,0.00,,,0.00,meteohub,2013-12-08 20:26:00,
2013-12-08 14:32:00,21.9,19.2,30.21,SW,225,6.0,12.0,89,0.00,,,0.00,meteohub,2013-12-08 20:32:00,
2013-12-08 14:37:00,22.1,19.4,30.21,SW,219,6.0,12.0,89,0.00,,,0.00,meteohub,2013-12-08 20:37:00,
2013-12-08 14:42:00,22.3,19.2,30.22,WSW,243,5.0,9.0,88,0.00,,,0.00,meteohub,2013-12-08 20:42:00,
2013-12-08 14:47:00,22.3,19.2,30.22,West,266,4.0,10.0,88,0.00,,,0.00,meteohub,2013-12-08 20:47:00,
2013-12-08 14:52:00,22.3,19.6,30.23,WSW,251,10.0,10.0,89,0.00,,,0.00,meteohub,2013-12-08 20:52:00,
2013-12-08 14:57:00,22.3,19.2,30.23,WSW,240,8.0,11.0,88,0.00,,,0.00,meteohub,2013-12-08 20:57:00,
2013-12-08 15:02:00,22.5,19.8,30.22,SW,233,2.0,11.0,89,0.00,,,0.00,meteohub,2013-12-08 21:02:00,
2013-12-08 15:07:00,22.5,19.8,30.23,WSW,255,6.0,11.0,89,0.00,,,0.00,meteohub,2013-12-08 21:07:00,
2013-12-08 15:12:00,22.6,19.9,30.23,SW,235,4.0,11.0,89,0.00,,,0.00,meteohub,2013-12-08 21:12:00,
2013-12-08 15:17:00,22.6,19.6,30.24,WSW,255,8.0,10.0,88,0.00,,,0.00,meteohub,2013-12-08 21:17:00,
2013-12-08 15:22:00,22.6,19.6,30.24,WSW,249,6.0,11.0,88,0.00,,,0.00,meteohub,2013-12-08 21:22:00,
2013-12-08 15:27:00,22.6,19.6,30.24,West,267,5.0,11.0,88,0.00,,,0.00,meteohub,2013-12-08 21:27:00,
2013-12-08 15:32:00,22.6,19.6,30.24,West,262,5.0,11.0,88,0.00,,,0.00,meteohub,2013-12-08 21:32:00,
2013-12-08 15:37:00,22.6,19.9,30.24,WSW,255,7.0,10.0,89,0.00,,,0.00,meteohub,2013-12-08 21:37:00,
2013-12-08 15:42:00,22.6,19.9,30.24,WSW,255,5.0,10.0,89,0.00,,,0.00,meteohub,2013-12-08 21:42:00,
2013-12-08 15:47:00,22.6,19.9,30.24,West,281,3.0,9.0,89,0.00,,,0.00,meteohub,2013-12-08 21:47:00,
2013-12-08 15:52:00,22.8,20.1,30.25,WSW,245,2.0,7.0,89,0.00,,,0.00,meteohub,2013-12-08 21:52:00,
2013-12-08 15:57:00,22.8,19.8,30.25,West,276,4.0,7.0,88,0.00,,,0.00,meteohub,2013-12-08 21:57:00,
2013-12-08 16:02:00,22.8,19.8,30.26,WNW,298,7.0,9.0,88,0.00,,,0.00,meteohub,2013-12-08 22:02:00,
2013-12-08 16:07:00,22.8,19.8,30.26,WNW,289,3.0,9.0,88,0.00,,,0.00,meteohub,2013-12-08 22:07:00,
2013-12-08 16:12:00,22.8,19.8,30.26,West,280,5.0,9.0,88,0.00,,,0.00,meteohub,2013-12-08 22:12:00,
2013-12-08 16:17:00,22.8,19.8,30.27,WNW,294,3.0,9.0,88,0.00,,,0.00,meteohub,2013-12-08 22:17:00,
2013-12-08 16:22:00,22.8,19.8,30.27,WNW,285,7.0,8.0,88,0.00,,,0.00,meteohub,2013-12-08 22:22:00,
2013-12-08 16:27:00,22.8,19.8,30.27,WNW,292,5.0,7.0,88,0.00,,,0.00,meteohub,2013-12-08 22:27:00,
2013-12-08 16:32:00,22.8,19.8,30.27,WNW,288,6.0,8.0,88,0.00,,,0.00,meteohub,2013-12-08 22:32:00,
2013-12-08 16:37:00,22.8,19.8,30.28,WNW,300,7.0,10.0,88,0.00,,,0.00,meteohub,2013-12-08 22:37:00,
2013-12-08 16:42:00,22.8,19.8,30.29,WNW,288,6.0,10.0,88,0.00,,,0.00,meteohub,2013-12-08 22:42:00,
2013-12-08 16:47:00,22.8,19.8,30.28,WNW,295,5.0,10.0,88,0.00,,,0.00,meteohub,2013-12-08 22:47:00,
2013-12-08 16:52:00,22.8,19.8,30.28,WNW,294,5.0,9.0,88,0.00,,,0.00,meteohub,2013-12-08 22:52:00,
2013-12-08 16:57:00,22.8,19.8,30.27,WNW,301,6.0,9.0,88,0.00,,,0.00,meteohub,2013-12-08 22:57:00,
2013-12-08 17:02:00,22.8,19.8,30.28,NW,323,4.0,9.0,88,0.00,,,0.00,meteohub,2013-12-08 23:02:00,
2013-12-08 17:07:00,22.8,19.8,30.28,WNW,287,7.0,9.0,88,0.00,,,0.00,meteohub,2013-12-08 23:07:00,
2013-12-08 17:12:00,22.8,19.8,30.28,WNW,302,4.0,10.0,88,0.00,,,0.00,meteohub,2013-12-08 23:12:00,
2013-12-08 17:17:00,22.6,19.6,30.28,NNW,344,6.0,11.0,88,0.00,,,0.00,meteohub,2013-12-08 23:17:00,
2013-12-08 17:22:00,22.6,19.6,30.28,NW,321,6.0,11.0,88,0.00,,,0.00,meteohub,2013-12-08 23:22:00,
2013-12-08 17:27:00,22.6,19.9,30.29,NNW,329,4.0,13.0,89,0.00,,,0.00,meteohub,2013-12-08 23:27:00,
2013-12-08 17:32:00,22.6,19.9,30.29,NW,316,2.0,13.0,89,0.00,,,0.00,meteohub,2013-12-08 23:32:00,
2013-12-08 17:37:00,22.5,19.8,30.30,WNW,298,4.0,11.0,89,0.00,,,0.00,meteohub,2013-12-08 23:37:00,
2013-12-08 17:42:00,22.6,19.9,30.30,WNW,295,3.0,8.0,89,0.00,,,0.00,meteohub,2013-12-08 23:42:00,
2013-12-08 17:47:00,22.6,19.6,30.30,NW,314,2.0,8.0,88,0.00,,,0.00,meteohub,2013-12-08 23:47:00,
2013-12-08 17:52:00,22.6,19.9,30.31,West,281,3.0,6.0,89,0.00,,,0.00,meteohub,2013-12-08 23:52:00,
2013-12-08 17:57:00,22.6,19.6,30.31,WNW,285,6.0,6.0,88,0.00,,,0.00,meteohub,2013-12-08 23:57:00,
2013-12-08 18:01:00,22.5,19.4,30.32,NW,307,4.0,8.0,88,0.00,,,0.00,meteohub,2013-12-09 00:01:00,
2013-12-08 18:07:00,22.6,19.6,30.32,NW,316,3.0,8.0,88,0.00,,,0.00,meteohub,2013-12-09 00:07:00,
2013-12-08 18:12:00,22.6,19.6,30.32,WNW,302,5.0,8.0,88,0.00,,,0.00,meteohub,2013-12-09 00:12:00,
2013-12-08 18:17:00,22.6,19.6,30.32,NW,311,6.0,7.0,88,0.00,,,0.00,meteohub,2013-12-09 00:17:00,
2013-12-08 18:22:00,22.6,19.6,30.33,WNW,300,6.0,9.0,88,0.00,,,0.00,meteohub,2013-12-09 00:22:00,
2013-12-08 18:27:00,22.6,19.6,30.33,WNW,296,8.0,9.0,88,0.00,,,0.00,meteohub,2013-12-09 00:27:00,
2013-12-08 18:32:00,22.6,19.6,30.33,WNW,285,4.0,11.0,88,0.00,,,0.00,meteohub,2013-12-09 00:32:00,
2013-12-08 18:37:00,22.6,19.6,30.33,NW,304,4.0,11.0,88,0.00,,,0.00,meteohub,2013-12-09 00:37:00,
2013-12-08 18:42:00,22.6,19.6,30.33,WNW,293,2.0,11.0,88,0.00,,,0.00,meteohub,2013-12-09 00:42:00,
2013-12-08 18:47:00,22.6,19.6,30.34,NW,323,9.0,9.0,88,0.00,,,0.00,meteohub,2013-12-09 00:47:00,
2013-12-08 18:52:00,22.6,19.6,30.35,North,8,1.0,12.0,88,0.00,,,0.00,meteohub,2013-12-09 00:52:00,
2013-12-08 18:57:00,22.6,19.6,30.35,NW,312,6.0,12.0,88,0.00,,,0.00,meteohub,2013-12-09 00:57:00,
2013-12-08 19:02:00,22.6,19.9,30.35,WNW,298,3.0,12.0,89,0.00,,,0.00,meteohub,2013-12-09 01:02:00,
2013-12-08 19:07:00,22.6,19.6,30.36,NW,304,10.0,10.0,88,0.00,,,0.00,meteohub,2013-12-09 01:07:00,
2013-12-08 19:12:00,22.6,19.6,30.36,WNW,300,7.0,11.0,88,0.00,,,0.00,meteohub,2013-12-09 01:12:00,
2013-12-08 19:17:00,22.6,19.6,30.37,NW,316,4.0,11.0,88,0.00,,,0.00,meteohub,2013-12-09 01:17:00,
2013-12-08 19:22:00,22.6,19.6,30.37,NW,312,6.0,11.0,88,0.00,,,0.00,meteohub,2013-12-09 01:22:00,
2013-12-08 19:27:00,22.6,19.6,30.37,NW,326,6.0,10.0,88,0.00,,,0.00,meteohub,2013-12-09 01:27:00,
2013-12-08 19:32:00,22.6,19.4,30.38,NW,307,3.0,10.0,87,0.00,,,0.00,meteohub,2013-12-09 01:32:00,
2013-12-08 19:37:00,22.6,19.4,30.38,WNW,299,5.0,10.0,87,0.00,,,0.00,meteohub,2013-12-09 01:37:00,
2013-12-08 19:42:00,22.6,19.4,30.38,WNW,298,5.0,9.0,87,0.00,,,0.00,meteohub,2013-12-09 01:42:00,
2013-12-08 19:47:00,22.6,19.0,30.39,WNW,288,3.0,10.0,86,0.00,,,0.00,meteohub,2013-12-09 01:47:00,
2013-12-08 19:52:00,22.6,18.9,30.39,NW,312,7.0,12.0,85,0.00,,,0.00,meteohub,2013-12-09 01:52:00,
2013-12-08 19:57:00,22.6,19.0,30.39,NW,324,2.0,13.0,86,0.00,,,0.00,meteohub,2013-12-09 01:57:00,
2013-12-08 20:02:00,22.6,19.0,30.39,WNW,301,6.0,13.0,86,0.00,,,0.00,meteohub,2013-12-09 02:02:00,
2013-12-08 20:07:00,22.5,18.7,30.39,WNW,291,6.0,11.0,85,0.00,,,0.00,meteohub,2013-12-09 02:07:00,
2013-12-08 20:12:00,22.5,18.3,30.40,NW,321,4.0,11.0,84,0.00,,,0.00,meteohub,2013-12-09 02:12:00,
2013-12-08 20:17:00,22.5,18.3,30.40,NW,311,7.0,11.0,84,0.00,,,0.00,meteohub,2013-12-09 02:17:00,
2013-12-08 20:22:00,22.5,18.7,30.40,WNW,302,1.0,11.0,85,0.00,,,0.00,meteohub,2013-12-09 02:22:00,
2013-12-08 20:27:00,22.5,18.7,30.40,NW,306,4.0,11.0,85,0.00,,,0.00,meteohub,2013-12-09 02:27:00,
2013-12-08 20:32:00,22.5,18.7,30.40,WNW,301,5.0,10.0,85,0.00,,,0.00,meteohub,2013-12-09 02:32:00,
2013-12-08 20:37:00,22.5,18.3,30.40,WNW,301,3.0,8.0,84,0.00,,,0.00,meteohub,2013-12-09 02:37:00,
2013-12-08 20:42:00,22.5,18.1,30.41,WNW,300,3.0,8.0,83,0.00,,,0.00,meteohub,2013-12-09 02:42:00,
2013-12-08 20:47:00,22.5,18.3,30.40,WNW,291,4.0,8.0,84,0.00,,,0.00,meteohub,2013-12-09 02:47:00,
2013-12-08 20:52:00,22.5,18.3,30.40,WNW,303,3.0,11.0,84,0.00,,,0.00,meteohub,2013-12-09 02:52:00,
2013-12-08 20:57:00,22.5,18.3,30.41,NW,312,6.0,11.0,84,0.00,,,0.00,meteohub,2013-12-09 02:57:00,
2013-12-08 21:02:00,22.5,18.7,30.41,WNW,303,4.0,11.0,85,0.00,,,0.00,meteohub,2013-12-09 03:02:00,
2013-12-08 21:07:00,22.5,18.7,30.42,WNW,300,8.0,8.0,85,0.00,,,0.00,meteohub,2013-12-09 03:07:00,
2013-12-08 21:12:00,22.5,18.3,30.42,NW,304,10.0,10.0,84,0.00,,,0.00,meteohub,2013-12-09 03:12:00,
2013-12-08 21:17:00,22.5,18.3,30.43,NW,309,3.0,13.0,84,0.00,,,0.00,meteohub,2013-12-09 03:17:00,
2013-12-08 21:22:00,22.5,18.1,30.43,WNW,298,9.0,13.0,83,0.00,,,0.00,meteohub,2013-12-09 03:22:00,
2013-12-08 21:27:00,22.5,18.1,30.43,WNW,296,8.0,16.0,83,0.00,,,0.00,meteohub,2013-12-09 03:27:00,
2013-12-08 21:32:00,22.5,18.1,30.43,NW,315,7.0,16.0,83,0.00,,,0.00,meteohub,2013-12-09 03:32:00,
2013-12-08 21:37:00,22.5,18.1,30.43,NW,309,3.0,16.0,83,0.00,,,0.00,meteohub,2013-12-09 03:37:00,
2013-12-08 21:42:00,22.3,18.0,30.43,NW,306,2.0,11.0,83,0.00,,,0.00,meteohub,2013-12-09 03:42:00,
2013-12-08 21:47:00,22.5,18.1,30.44,NW,309,4.0,10.0,83,0.00,,,0.00,meteohub,2013-12-09 03:47:00,
2013-12-08 21:52:00,22.5,18.3,30.45,North,350,6.0,10.0,84,0.00,,,0.00,meteohub,2013-12-09 03:52:00,
2013-12-08 21:57:00,22.5,18.3,30.45,WNW,301,9.0,10.0,84,0.00,,,0.00,meteohub,2013-12-09 03:57:00,
2013-12-08 22:01:00,22.3,18.1,30.45,WNW,294,4.0,10.0,84,0.00,,,0.00,meteohub,2013-12-09 04:01:00,
2013-12-08 22:06:00,22.3,18.0,30.45,WNW,299,13.0,13.0,83,0.00,,,0.00,meteohub,2013-12-09 04:06:00,
2013-12-08 22:11:00,22.1,17.8,30.45,NW,323,12.0,16.0,83,0.00,,,0.00,meteohub,2013-12-09 04:11:00,
2013-12-08 22:17:00,21.9,17.6,30.45,NNE,15,12.0,16.0,83,0.00,,,0.00,meteohub,2013-12-09 04:17:00,
2013-12-08 22:22:00,21.7,17.1,30.46,WNW,301,8.0,18.0,82,0.00,,,0.00,meteohub,2013-12-09 04:22:00,
2013-12-08 22:27:00,21.6,16.9,30.46,NW,326,12.0,18.0,82,0.00,,,0.00,meteohub,2013-12-09 04:27:00,
2013-12-08 22:32:00,21.4,16.5,30.47,NNW,329,13.0,18.0,81,0.00,,,0.00,meteohub,2013-12-09 04:32:00,
2013-12-08 22:37:00,21.0,16.2,30.46,NNW,348,8.0,20.0,81,0.00,,,0.00,meteohub,2013-12-09 04:37:00,
2013-12-08 22:42:00,20.8,16.0,30.46,NNW,338,8.0,20.0,81,0.00,,,0.00,meteohub,2013-12-09 04:42:00,
2013-12-08 22:47:00,20.7,15.4,30.47,NW,312,7.0,20.0,80,0.00,,,0.00,meteohub,2013-12-09 04:47:00,
2013-12-08 22:52:00,20.7,14.9,30.48,NNW,346,7.0,18.0,78,0.00,,,0.00,meteohub,2013-12-09 04:52:00,
2013-12-08 22:57:00,20.3,14.2,30.48,NNW,338,6.0,16.0,77,0.00,,,0.00,meteohub,2013-12-09 04:57:00,
2013-12-08 23:01:00,20.1,14.0,30.47,North,356,8.0,16.0,77,0.00,,,0.00,meteohub,2013-12-09 05:01:00,
2013-12-08 23:06:00,19.9,14.2,30.48,NW,326,8.0,16.0,78,0.00,,,0.00,meteohub,2013-12-09 05:06:00,
2013-12-08 23:11:00,19.8,14.0,30.48,WNW,301,9.0,16.0,78,0.00,,,0.00,meteohub,2013-12-09 05:11:00,
2013-12-08 23:16:00,19.6,14.2,30.47,NNW,335,18.0,18.0,79,0.00,,,0.00,meteohub,2013-12-09 05:16:00,
2013-12-08 23:21:00,19.2,13.5,30.47,NNW,347,6.0,18.0,78,0.00,,,0.00,meteohub,2013-12-09 05:21:00,
2013-12-08 23:26:00,18.9,13.1,30.47,NW,312,9.0,18.0,78,0.00,,,0.00,meteohub,2013-12-09 05:26:00,
2013-12-08 23:31:00,18.5,13.1,30.47,North,11,7.0,18.0,79,0.00,,,0.00,meteohub,2013-12-09 05:31:00,
2013-12-08 23:36:00,18.3,13.3,30.46,NNW,339,7.0,17.0,80,0.00,,,0.00,meteohub,2013-12-09 05:36:00,
2013-12-08 23:41:00,18.0,12.9,30.46,NE,34,8.0,16.0,80,0.00,,,0.00,meteohub,2013-12-09 05:41:00,
2013-12-08 23:46:00,17.8,12.7,30.46,North,350,5.0,16.0,80,0.00,,,0.00,meteohub,2013-12-09 05:46:00,
2013-12-08 23:51:00,17.8,12.9,30.47,NW,316,9.0,13.0,81,0.00,,,0.00,meteohub,2013-12-09 05:51:00,
2013-12-08 23:56:00,17.4,12.6,30.47,NW,312,6.0,13.0,81,0.00,,,0.00,meteohub,2013-12-09 05:56:00,